Regional Weather Roundup
Issued by NWS

Current Version | Previous Version | Text Only | Print | Product List | Glossary On
Versions: 1 2 3 4 5 6 7 8 9 10 11 12 13 14 15 16 17 18 19 20 21 22 23 24 25 26 27 28 29 30 31 32 33 34 35 36 37 38 39 40 41 42 43 44 45 46 47 48 49 50
000
ASUS45 KBOU 301507
RWRCO

WEATHER ROUNDUP FOR COLORADO
NATIONAL WEATHER SERVICE DENVER/BOULDER CO
900 AM MDT SAT JUL 30 2016

NOTE: "FAIR" INDICATES FEW OR NO CLOUDS BELOW 12000 FEET WITH NO
SIGNIFICANT WEATHER AND/OR OBSTRUCTIONS TO VISIBILITY.

COZ001>005-013-030-031-301600-
...NORTHWEST COLORADO...

CITY           SKY/WX    TMP DP  RH WIND       PRES   REMARKS
CRAIG          FAIR      63  42  46 CALM      30.19R
HAYDEN         FAIR      63  36  36 E9        30.21R
MEEKER         FAIR      66  39  37 CALM      30.20R
MOUNT WERNER   NOT AVBL
STEAMBOAT SPGS FAIR      58  40  50 CALM      30.24R
WALDEN         FAIR      59  32  36 CALM      30.31R
$$

COZ006>008-011-301600-
...WEST CENTRAL VALLEYS...

CITY           SKY/WX    TMP DP  RH WIND       PRES   REMARKS
GRAND JUNCTION FAIR      78  40  25 SE9       30.07R
MONTROSE       PTSUNNY   77  43  29 S8        30.14F
EAGLE          SUNNY     63  39  42 CALM      30.24S
RIFLE          FAIR      69  39  33 CALM      30.15R
DELTA          NOT AVBL
NUCLA          NOT AVBL
$$

COZ017>023-064>068-301600-
...SOUTHWEST COLORADO...

CITY           SKY/WX    TMP DP  RH WIND       PRES   REMARKS
DURANGO        FAIR      71  43  36 E7        30.26R
CORTEZ         FAIR      72  50  45 CALM      30.18R
PAGOSA SPRINGS FAIR      70  40  33 E3        30.35S
TELLURIDE      PTSUNNY   65  40  40 CALM      30.43R
WOLF CREEK PAS FAIR      50  37  62 S15       30.66R
$$

COZ009-010-012-014-032>034-037-058>063-301600-
...CENTRAL COLORADO...

CITY           SKY/WX    TMP DP  RH WIND       PRES   REMARKS
ASPEN          FAIR      66  38  35 CALM      30.28S
BUENA VISTA    FAIR      64  48  54 CALM      30.32F
COPPER MTN     FAIR      59  25  27 NW21G28   30.60S
BERTHOUD PASS  FAIR      50  34  53 NW28G33   30.60S
COTTONWOOD PAS FAIR      63  48  59 CALM      30.45S
GUNNISON       FAIR      61  37  41 CALM      30.36S
KREMMLING      FAIR      59  34  38 CALM      30.29S
LEADVILLE      FAIR      56  43  61 NW3       30.45S
MONARCH PASS   FAIR      54  32  43 SW9       30.72S
SALIDA         FAIR      65  52  62 N5        30.36F
SUNLIGHT       FAIR      64  36  34 MISG      30.56R
WILKERSON PASS FAIR      52  37  58 W8        30.56S
$$

COZ069>075-301600-
...SAN LUIS VALLEY/SANGRE DE CRISTO MOUNTAINS...

CITY           SKY/WX    TMP DP  RH WIND       PRES   REMARKS
ALAMOSA        FAIR      65  43  44 CALM      30.30F
LA VETA PASS   FAIR      57  41  54 S9G22     30.47S
SAGUACHE       FAIR      64  43  45 CALM      30.35F
$$

COZ035-036-038>040-301600-
...NORTHERN COLORADO FRONT RANGE...

CITY           SKY/WX    TMP DP  RH WIND       PRES   REMARKS
DENVER INTL AP FAIR      70  59  68 N9        30.06S
DMNS CITY PARK   N/A     70  59  69 N6G14     30.06S
AURORA         MOSUNNY   69  60  74 NW10      30.08R
FRONT RANGE AP MOSUNNY   72  59  64 NW9       30.08R
ERIE MUNI ARPT FAIR      69  60  72 N8        30.06S
BOULDER MUN AP FAIR      70  59  68 N5        30.07R
CENTENNIAL     FAIR      73  57  57 N8        30.08R
BROOMFIELD     SUNNY     68  59  73 N9        30.09R
LONGMONT       NOT AVBL
$$

COZ041-046-047-076>085-087-088-301600-
...PIKES PEAK/PALMER DIVIDE AND SOUTHERN FOOTHILLS...

CITY           SKY/WX    TMP DP  RH WIND       PRES   REMARKS
COLO. SPRINGS  FAIR      66  57  72 CALM      30.16S
A. F. ACADEMY  SUNNY     65  58  76 S3        30.16S
SCHRIEVER AFB  NOT AVBL
ELLICOTT       NOT AVBL
FALCON         NOT AVBL
FORT CARSON    FAIR      66  59  77 N3        30.12F
LIMON          FAIR      67  58  72 S8        30.09F
MONUMENT HILL  FAIR      72  52  49 SW14      30.19S
TRINIDAD       NOT AVBL
$$

COZ042>045-048>051-090-091-301600-
...NORTHEAST COLORADO...

CITY           SKY/WX    TMP DP  RH WIND       PRES   REMARKS
GREELEY ARPT   FAIR      68  63  83 CALM      30.05S
AKRON          FAIR      71  58  63 S6        30.05F
BURLINGTON     FAIR      74  58  57 S9        30.04F
WRAY           FAIR      72  61  68 SE3       30.03S
STERLING       NOT AVBL
HOLYOKE        NOT AVBL
FORT MORGAN    NOT AVBL
$$

COZ086-089-092>099-301600-
...SOUTHEAST COLORADO...

CITY           SKY/WX    TMP DP  RH WIND       PRES   REMARKS
PUEBLO         FAIR      73  59  61 SW6       30.07F
LA JUNTA       FAIR      72  57  59 W9        30.05S
LAMAR          FAIR      79  56  45 W20G26    29.97R
SPRINGFIELD      N/A     75  57  53 S13G18    30.07F
$$



USA.gov is the U.S. government's official web portal to all federal, state and local government web resources and services.